TimeCST,TemperatureF,Dew PointF,Humidity,Sea Level PressureIn,VisibilityMPH,Wind Direction,Wind SpeedMPH,Gust SpeedMPH,PrecipitationIn,Events,Conditions,WindDirDegrees,DateUTC
12:15 AM,51.8,35.6,54,30.22,10.0,Calm,Calm,-,N/A,,Clear,0,2013-02-02 06:15:00
12:35 AM,51.8,35.6,54,30.21,10.0,Calm,Calm,-,N/A,,Clear,0,2013-02-02 06:35:00
12:55 AM,51.8,37.4,58,30.20,10.0,Calm,Calm,-,N/A,,Clear,0,2013-02-02 06:55:00
1:15 AM,51.8,39.2,62,30.21,10.0,Calm,Calm,-,N/A,,Clear,0,2013-02-02 07:15:00
1:35 AM,50.0,39.2,66,30.21,10.0,Calm,Calm,-,N/A,,Clear,0,2013-02-02 07:35:00
1:55 AM,46.4,37.4,71,30.21,10.0,Calm,Calm,-,N/A,,Clear,0,2013-02-02 07:55:00
2:15 AM,46.4,37.4,71,30.21,10.0,Calm,Calm,-,N/A,,Clear,0,2013-02-02 08:15:00
2:35 AM,44.6,37.4,76,30.20,10.0,Calm,Calm,-,N/A,,Clear,0,2013-02-02 08:35:00
2:55 AM,42.8,35.6,76,30.20,10.0,Calm,Calm,-,N/A,,Clear,0,2013-02-02 08:55:00
3:15 AM,41.0,35.6,81,30.20,10.0,Calm,Calm,-,N/A,,Clear,0,2013-02-02 09:15:00
3:35 AM,39.2,35.6,87,30.21,10.0,Calm,Calm,-,N/A,,Clear,0,2013-02-02 09:35:00
3:55 AM,39.2,35.6,87,30.21,10.0,Calm,Calm,-,N/A,,Clear,0,2013-02-02 09:55:00
4:15 AM,39.2,35.6,87,30.21,10.0,Calm,Calm,-,N/A,,Clear,0,2013-02-02 10:15:00
4:35 AM,41.0,35.6,81,30.21,10.0,Calm,Calm,-,N/A,,Clear,0,2013-02-02 10:35:00
4:55 AM,39.2,35.6,87,30.21,10.0,Calm,Calm,-,N/A,,Clear,0,2013-02-02 10:55:00
5:15 AM,39.2,35.6,87,30.21,10.0,Calm,Calm,-,N/A,,Clear,0,2013-02-02 11:15:00
5:35 AM,37.4,33.8,87,30.21,10.0,Calm,Calm,-,N/A,,Clear,0,2013-02-02 11:35:00
5:55 AM,35.6,33.8,93,30.22,10.0,Calm,Calm,-,N/A,,Clear,0,2013-02-02 11:55:00
6:15 AM,37.4,33.8,87,30.22,10.0,Calm,Calm,-,N/A,,Clear,0,2013-02-02 12:15:00
6:35 AM,37.4,33.8,87,30.23,10.0,Calm,Calm,-,N/A,,Clear,0,2013-02-02 12:35:00
6:55 AM,37.4,35.6,93,30.23,10.0,Calm,Calm,-,N/A,,Clear,0,2013-02-02 12:55:00
7:15 AM,35.6,33.8,93,30.23,10.0,Calm,Calm,-,N/A,,Clear,0,2013-02-02 13:15:00
7:35 AM,37.4,33.8,87,30.24,10.0,Calm,Calm,-,N/A,,Clear,0,2013-02-02 13:35:00
7:55 AM,39.2,35.6,87,30.25,10.0,Calm,Calm,-,N/A,,Clear,0,2013-02-02 13:55:00
8:15 AM,42.8,39.2,87,30.25,10.0,Calm,Calm,-,N/A,,Clear,0,2013-02-02 14:15:00
8:35 AM,46.4,41.0,81,30.26,10.0,Calm,Calm,-,N/A,,Clear,0,2013-02-02 14:35:00
8:55 AM,50.0,42.8,76,30.26,10.0,Calm,Calm,-,N/A,,Clear,0,2013-02-02 14:55:00
9:15 AM,51.8,44.6,76,30.27,10.0,Calm,Calm,-,N/A,,Clear,0,2013-02-02 15:15:00
9:35 AM,55.4,46.4,72,30.27,10.0,SW,5.8,-,N/A,,Clear,220,2013-02-02 15:35:00
9:55 AM,57.2,46.4,67,30.27,10.0,Calm,Calm,-,N/A,,Clear,0,2013-02-02 15:55:00
10:15 AM,59.0,46.4,63,30.27,10.0,Calm,Calm,-,N/A,,Clear,0,2013-02-02 16:15:00
10:35 AM,60.8,46.4,59,30.28,10.0,SW,3.5,-,N/A,,Clear,220,2013-02-02 16:35:00
10:55 AM,62.6,48.2,59,30.28,10.0,Calm,Calm,-,N/A,,Clear,0,2013-02-02 16:55:00
11:15 AM,64.4,48.2,56,30.28,10.0,Calm,Calm,-,N/A,,Clear,0,2013-02-02 17:15:00
11:35 AM,66.2,48.2,52,30.28,10.0,Calm,Calm,-,N/A,,Clear,0,2013-02-02 17:35:00
11:55 AM,68.0,48.2,49,30.27,10.0,West,3.5,-,N/A,,Clear,260,2013-02-02 17:55:00
12:15 PM,68.0,48.2,49,30.27,10.0,West,6.9,-,N/A,,Clear,260,2013-02-02 18:15:00
12:35 PM,69.8,46.4,43,30.26,10.0,WNW,11.5,-,N/A,,Clear,300,2013-02-02 18:35:00
12:55 PM,69.8,46.4,43,30.25,9.0,Calm,Calm,-,N/A,,Clear,0,2013-02-02 18:55:00
1:15 PM,69.8,46.4,43,30.24,10.0,Calm,Calm,-,N/A,,Clear,0,2013-02-02 19:15:00
1:35 PM,69.8,46.4,43,30.23,10.0,Calm,Calm,-,N/A,,Clear,0,2013-02-02 19:35:00
1:55 PM,73.4,48.2,41,30.23,10.0,Calm,Calm,-,N/A,,Clear,0,2013-02-02 19:55:00
2:15 PM,71.6,46.4,41,30.23,10.0,West,9.2,-,N/A,,Partly Cloudy,280,2013-02-02 20:15:00
2:35 PM,73.4,46.4,38,30.23,10.0,NE,9.2,-,N/A,,Partly Cloudy,40,2013-02-02 20:35:00
2:55 PM,71.6,46.4,41,30.23,9.0,NNE,9.2,-,N/A,,Clear,20,2013-02-02 20:55:00
3:15 PM,71.6,44.6,38,30.23,10.0,NNE,10.4,-,N/A,,Clear,20,2013-02-02 21:15:00
3:35 PM,71.6,44.6,38,30.23,10.0,North,5.8,-,N/A,,Clear,10,2013-02-02 21:35:00
3:55 PM,71.6,44.6,38,30.23,10.0,NNE,6.9,-,N/A,,Clear,30,2013-02-02 21:55:00
4:15 PM,71.6,44.6,38,30.23,10.0,North,8.1,-,N/A,,Clear,10,2013-02-02 22:15:00
4:35 PM,71.6,42.8,35,30.23,10.0,NE,11.5,-,N/A,,Clear,50,2013-02-02 22:35:00
4:55 PM,71.6,44.6,38,30.23,10.0,NE,3.5,-,N/A,,Clear,50,2013-02-02 22:55:00
5:35 PM,69.8,44.6,40,30.25,10.0,NNE,9.2,-,N/A,,Clear,20,2013-02-02 23:35:00
5:55 PM,66.2,44.6,46,30.25,10.0,NE,4.6,-,N/A,,Clear,40,2013-02-02 23:55:00
6:15 PM,66.2,42.8,43,30.26,10.0,NNE,3.5,-,N/A,,Clear,30,2013-02-03 00:15:00
6:35 PM,64.4,42.8,45,30.26,10.0,NNE,3.5,-,N/A,,Clear,20,2013-02-03 00:35:00
6:55 PM,62.6,42.8,48,30.27,10.0,Calm,Calm,-,N/A,,Clear,0,2013-02-03 00:55:00
7:15 PM,60.8,41.0,48,30.28,10.0,Calm,Calm,-,N/A,,Clear,0,2013-02-03 01:15:00
7:35 PM,60.8,41.0,48,30.29,10.0,NNE,3.5,-,N/A,,Clear,30,2013-02-03 01:35:00
7:55 PM,60.8,39.2,45,30.30,10.0,NNE,5.8,-,N/A,,Clear,30,2013-02-03 01:55:00
8:15 PM,60.8,37.4,42,30.31,10.0,NE,8.1,-,N/A,,Clear,40,2013-02-03 02:15:00
8:55 PM,60.8,35.6,39,30.32,10.0,NNE,5.8,-,N/A,,Clear,30,2013-02-03 02:55:00
9:15 PM,59.0,33.8,39,30.33,10.0,NE,5.8,-,N/A,,Clear,40,2013-02-03 03:15:00
9:35 PM,59.0,33.8,39,30.33,10.0,Calm,Calm,-,N/A,,Clear,0,2013-02-03 03:35:00
9:55 PM,55.4,33.8,44,30.34,10.0,Calm,Calm,-,N/A,,Clear,0,2013-02-03 03:55:00
10:15 PM,51.8,33.8,50,30.34,10.0,Calm,Calm,-,N/A,,Clear,0,2013-02-03 04:15:00
10:35 PM,51.8,35.6,54,30.34,10.0,Calm,Calm,-,N/A,,Clear,0,2013-02-03 04:35:00
10:55 PM,51.8,33.8,50,30.34,10.0,Calm,Calm,-,N/A,,Partly Cloudy,0,2013-02-03 04:55:00
11:15 PM,48.2,35.6,62,30.35,10.0,Calm,Calm,-,N/A,,Clear,0,2013-02-03 05:15:00
11:35 PM,46.4,35.6,66,30.36,10.0,Calm,Calm,-,N/A,,Clear,0,2013-02-03 05:35:00
11:55 PM,48.2,35.6,62,30.36,10.0,Calm,Calm,-,N/A,,Partly Cloudy,0,2013-02-03 05:55:00